Location: Unspecified
(0.0000°N, 0.0000°E)
Time: 08:35:16
(UTC+00:00)

Vanguard 2 - Pass Details

Date: 24 October 2021
Orbit: 554 x 2936 km, 32.9° (Epoch: 06 December)

Event Time Altitude Azimuth Distance (km) Brightness Sun altitude
Rises 16:45:56 0° 211° (SSW) 5,154 12.4 14.2°
Reaches altitude 10° 16:51:46 10° 188° (S) 4,674 11.8 12.8°
Maximum altitude 16:58:22 15° 158° (SSE) 4,768 11.5 11.2°
Drops below altitude 10° 17:05:58 10° 130° (SE) 5,534 11.6 9.3°
Sets 17:14:13 0° 109° (ESE) 6,766 11.8 7.3°
